Home   Weather   Graz   Past weeks

Flag for Austria Past Weather in Graz, Styria, Austria — Yesterday and Last 2 Weeks

Now
36 °F

Partly cloudy.


Feels Like: 33 °F
Forecast: 25 / 37 °F
Wind: 3 mph from Southeast

Location: Graz-Thalerhof-Flughafen

Current Time: Dec 2, 2016 at 11:35:23 pm

Latest Report: Dec 2, 2016 at 10:50 pm


Visibility: N/A

Pressure: 30.15 "Hg

Humidity: 81%

Dew Point: 30 °F

Location of GrazLocation

Past Weather in Graz — Graph

°F

Graz Temperature Yesterday

Maximum temperature yesterday: 41 °F (at 2:20 pm)
Minimum temperature yesterday: 19 °F (at 5:20 am)
Average temperature yesterday: 29 °F

High & Low Weather Summary for the Past Weeks

 TemperatureHumidityPressure
High63 °F (Nov 22, 12:50 pm)100% (Nov 17, 10:20 pm)30.48 "Hg (Nov 17, 10:20 pm)
Low18 °F (Nov 30, 2:20 am)28% (Nov 28, 12:20 pm)29.80 "Hg (Dec 2, 6:50 am)
Average41 °F87%30.08 "Hg
* Reported Nov 17 10:20 pm — Dec 2 10:20 pm, Graz, Weather by CustomWeather, © 2016

Note: Actual official high and low records may vary slightly from our data, if they occured in-between our weather recording intervals... More about our weather records

Advertising

Graz Weather History for the Previous 24 Hours

Scroll right to see more
 ConditionsComfort  
Time TempWeatherWind HumidityBarometerVisibility
10:20 pm
Fri, Dec 2
36 °FPartly cloudy.1 mph81%30.12 "HgN/A
9:50 pm36 °FPartly cloudy.No wind81%30.12 "HgN/A
9:20 pm36 °FPartly cloudy.1 mph81%30.12 "HgN/A
8:50 pm36 °FPartly cloudy.1 mph81%30.12 "HgN/A
8:20 pm37 °FPartly cloudy.2 mph75%30.09 "HgN/A
7:50 pm39 °FPartly cloudy.2 mph70%30.09 "HgN/A
7:20 pm39 °FPartly cloudy.2 mph70%30.09 "HgN/A
6:50 pm39 °FPartly cloudy.5 mph70%30.07 "HgN/A
6:20 pm37 °FPartly cloudy.9 mph75%30.07 "HgN/A
5:50 pm39 °FPassing clouds.10 mph75%30.04 "HgN/A
5:20 pm41 °FPassing clouds.7 mph70%30.01 "HgN/A
4:50 pm41 °FPassing clouds.8 mph70%30.01 "HgN/A
4:20 pm45 °FPassing clouds.10 mph57%29.98 "HgN/A
3:50 pm46 °FScattered clouds.17 mph53%29.95 "HgN/A
2:50 pm50 °FScattered clouds.21 mph43%29.95 "HgN/A
2:20 pm50 °FScattered clouds.16 mph47%29.92 "HgN/A
1:50 pm52 °FScattered clouds.10 mph44%29.92 "HgN/A
1:20 pm54 °FScattered clouds.10 mph38%29.89 "HgN/A
12:50 pm54 °FScattered clouds.8 mph38%29.89 "HgN/A
12:20 pm54 °FScattered clouds.8 mph38%29.89 "HgN/A
11:50 am54 °FPassing clouds.10 mph38%29.86 "HgN/A
11:20 am54 °FPassing clouds.8 mph35%29.86 "HgN/A
10:50 am48 °FSunny.2 mph58%29.86 "Hg10 mi
10:20 am39 °FSunny.2 mph75%29.86 "Hg10 mi
9:50 am34 °FSunny.3 mph75%29.86 "Hg10 mi
9:20 am30 °FPartly sunny.3 mph86%29.86 "HgN/A
8:50 am27 °FPartly sunny.2 mph93%29.83 "HgN/A
8:20 am25 °FPartly sunny.5 mph93%29.86 "HgN/A
7:50 am23 °FPartly sunny.3 mph93%29.83 "HgN/A
7:20 am23 °FPassing clouds.5 mph93%29.83 "HgN/A
6:50 am23 °FPassing clouds.3 mph93%29.80 "HgN/A
6:20 am21 °FClear.2 mph100%29.83 "Hg10 mi
5:50 am21 °FClear.2 mph93%29.83 "Hg10 mi
5:20 am21 °FCold.2 mph93%29.83 "HgN/A
4:50 am21 °FCold.1 mph100%29.83 "HgN/A
4:20 am21 °FCold.2 mph93%29.83 "HgN/A
3:50 am23 °FCold.2 mph93%29.83 "HgN/A
3:20 am19 °FCold.5 mph93%29.86 "HgN/A
2:50 am21 °FCold.2 mph93%29.86 "HgN/A
2:20 am21 °FCold.2 mph93%29.86 "HgN/A
1:50 am21 °FCold.2 mph86%29.89 "HgN/A
1:20 am25 °FCold.2 mph93%29.89 "HgN/A
12:50 am25 °FCold.1 mph93%29.89 "HgN/A
12:20 am27 °FChilly.2 mph93%29.89 "HgN/A
11:50 pm
Thu, Dec 1
25 °FCold.3 mph93%29.92 "HgN/A
11:20 pm25 °FClear.2 mph86%29.92 "Hg10 mi
Weather by CustomWeather, © 2016

See weather overviewHow to use our weather pages